Time,TemperatureF,DewpointF,PressureIn,WindDirection,WindDirectionDegrees,WindSpeedMPH,WindSpeedGustMPH,Humidity,HourlyPrecipIn,Conditions,Clouds,dailyrainin,SoftwareType,DateUTC
2013-02-18 00:00:00,55.0,25.0,-100.00,SW,226,3.0,11.0,31,0.00,,,0.00,meteohub,2013-02-18 08:00:00,
2013-02-18 00:05:00,55.0,25.0,-100.00,SSW,198,6.0,11.0,31,0.00,,,0.00,meteohub,2013-02-18 08:05:00,
2013-02-18 00:10:00,55.0,25.0,-100.00,SSW,207,4.0,10.0,31,0.00,,,0.00,meteohub,2013-02-18 08:10:00,
2013-02-18 00:15:00,55.0,24.1,-100.00,SW,218,5.0,9.0,30,0.00,,,0.00,meteohub,2013-02-18 08:15:00,
2013-02-18 00:20:00,54.9,24.8,-100.00,SW,224,3.0,8.0,31,0.00,,,0.00,meteohub,2013-02-18 08:20:00,
2013-02-18 00:25:00,54.9,24.8,-100.00,SW,227,5.0,8.0,31,0.00,,,0.00,meteohub,2013-02-18 08:25:00,
2013-02-18 00:30:00,54.9,25.5,-100.00,SW,220,4.0,9.0,32,0.00,,,0.00,meteohub,2013-02-18 08:30:00,
2013-02-18 00:35:00,54.7,24.6,-100.00,SW,217,6.0,9.0,31,0.00,,,0.00,meteohub,2013-02-18 08:35:00,
2013-02-18 00:40:00,54.7,25.3,-100.00,SSW,207,4.0,8.0,32,0.00,,,0.00,meteohub,2013-02-18 08:40:00,
2013-02-18 00:45:00,54.5,25.2,-100.00,WSW,240,6.0,12.0,32,0.00,,,0.00,meteohub,2013-02-18 08:45:00,
2013-02-18 00:50:00,54.3,25.2,-100.00,SW,227,7.0,12.0,32,0.00,,,0.00,meteohub,2013-02-18 08:50:00,
2013-02-18 00:55:00,54.3,25.9,-100.00,West,259,4.0,11.0,33,0.00,,,0.00,meteohub,2013-02-18 08:55:00,
2013-02-18 01:00:00,54.1,25.7,-100.00,SW,221,5.0,11.0,33,0.00,,,0.00,meteohub,2013-02-18 09:00:00,
2013-02-18 01:05:00,54.1,25.7,-100.00,SW,225,2.0,9.0,33,0.00,,,0.00,meteohub,2013-02-18 09:05:00,
2013-02-18 01:10:00,54.0,25.5,-100.00,SW,226,0.0,9.0,33,0.00,,,0.00,meteohub,2013-02-18 09:10:00,
2013-02-18 01:15:00,53.8,25.3,-100.00,SW,226,0.0,7.0,33,0.00,,,0.00,meteohub,2013-02-18 09:15:00,
2013-02-18 01:20:00,53.6,25.2,-100.00,WSW,255,3.0,3.0,33,0.00,,,0.00,meteohub,2013-02-18 09:20:00,
2013-02-18 01:25:00,52.9,25.9,-100.00,West,259,7.0,8.0,35,0.00,,,0.00,meteohub,2013-02-18 09:25:00,
2013-02-18 01:30:00,52.5,25.0,-100.00,WSW,244,6.0,10.0,34,0.00,,,0.00,meteohub,2013-02-18 09:30:00,
2013-02-18 01:35:00,52.3,25.5,-100.00,WSW,246,5.0,10.0,35,0.00,,,0.00,meteohub,2013-02-18 09:35:00,
2013-02-18 01:40:00,52.2,26.1,-100.00,WSW,242,6.0,9.0,36,0.00,,,0.00,meteohub,2013-02-18 09:40:00,
2013-02-18 01:45:00,52.0,25.9,-100.00,WSW,254,6.0,8.0,36,0.00,,,0.00,meteohub,2013-02-18 09:45:00,
2013-02-18 01:50:00,52.0,25.9,-100.00,SW,234,2.0,8.0,36,0.00,,,0.00,meteohub,2013-02-18 09:50:00,
2013-02-18 01:55:00,51.8,25.7,-100.00,SW,229,0.0,7.0,36,0.00,,,0.00,meteohub,2013-02-18 09:55:00,
2013-02-18 02:00:00,51.4,25.3,-100.00,SSE,148,3.0,7.0,36,0.00,,,0.00,meteohub,2013-02-18 10:00:00,
2013-02-18 02:05:00,51.3,25.2,-100.00,SSE,148,1.0,4.0,36,0.00,,,0.00,meteohub,2013-02-18 10:05:00,
2013-02-18 02:10:00,51.1,25.0,-100.00,SSE,147,2.0,4.0,36,0.00,,,0.00,meteohub,2013-02-18 10:10:00,
2013-02-18 02:15:00,50.7,24.8,-100.00,SE,132,3.0,5.0,36,0.00,,,0.00,meteohub,2013-02-18 10:15:00,
2013-02-18 02:20:00,50.5,24.6,-100.00,ESE,122,3.0,6.0,36,0.00,,,0.00,meteohub,2013-02-18 10:20:00,
2013-02-18 02:25:00,50.2,23.5,-100.00,ESE,105,2.0,6.0,35,0.00,,,0.00,meteohub,2013-02-18 10:25:00,
2013-02-18 02:30:00,49.1,22.6,-100.00,ESE,105,4.0,6.0,35,0.00,,,0.00,meteohub,2013-02-18 10:30:00,
2013-02-18 02:35:00,48.6,22.1,-100.00,ESE,104,3.0,5.0,35,0.00,,,0.00,meteohub,2013-02-18 10:35:00,
2013-02-18 02:40:00,48.2,22.5,-100.00,ESE,104,0.0,5.0,36,0.00,,,0.00,meteohub,2013-02-18 10:40:00,
2013-02-18 02:45:00,47.8,22.8,-100.00,SW,228,4.0,5.0,37,0.00,,,0.00,meteohub,2013-02-18 10:45:00,
2013-02-18 02:50:00,47.5,23.2,-100.00,WSW,242,2.0,6.0,38,0.00,,,0.00,meteohub,2013-02-18 10:50:00,
2013-02-18 02:55:00,47.1,22.8,-100.00,WSW,243,5.0,6.0,38,0.00,,,0.00,meteohub,2013-02-18 10:55:00,
2013-02-18 03:00:00,47.1,23.4,-100.00,WSW,245,6.0,7.0,39,0.00,,,0.00,meteohub,2013-02-18 11:00:00,
2013-02-18 03:05:00,46.9,23.9,-100.00,SW,232,3.0,7.0,40,0.00,,,0.00,meteohub,2013-02-18 11:05:00,
2013-02-18 03:10:00,47.3,24.3,-100.00,SW,233,3.0,7.0,40,0.00,,,0.00,meteohub,2013-02-18 11:10:00,
2013-02-18 03:15:00,47.8,24.1,-100.00,SW,233,1.0,7.0,39,0.00,,,0.00,meteohub,2013-02-18 11:15:00,
2013-02-18 03:20:00,48.2,23.7,-100.00,WSW,240,3.0,5.0,38,0.00,,,0.00,meteohub,2013-02-18 11:20:00,
2013-02-18 03:25:00,48.2,24.4,-100.00,WSW,257,2.0,4.0,39,0.00,,,0.00,meteohub,2013-02-18 11:25:00,
2013-02-18 03:30:00,48.0,23.5,-100.00,WSW,257,1.0,4.0,38,0.00,,,0.00,meteohub,2013-02-18 11:30:00,
2013-02-18 03:35:00,47.8,24.1,-100.00,WSW,257,1.0,4.0,39,0.00,,,0.00,meteohub,2013-02-18 11:35:00,
2013-02-18 03:40:00,47.8,24.1,-100.00,WSW,257,2.0,4.0,39,0.00,,,0.00,meteohub,2013-02-18 11:40:00,
2013-02-18 03:45:00,47.5,23.7,-100.00,West,260,2.0,4.0,39,0.00,,,0.00,meteohub,2013-02-18 11:45:00,
2013-02-18 03:50:00,47.3,23.5,-100.00,West,260,2.0,4.0,39,0.00,,,0.00,meteohub,2013-02-18 11:50:00,
2013-02-18 03:55:00,46.9,23.9,-100.00,West,260,3.0,4.0,40,0.00,,,0.00,meteohub,2013-02-18 11:55:00,
2013-02-18 04:01:00,46.8,23.7,-100.00,West,261,1.0,4.0,40,0.00,,,0.00,meteohub,2013-02-18 12:01:00,
2013-02-18 04:06:00,46.6,24.1,-100.00,WSW,246,3.0,4.0,41,0.00,,,0.00,meteohub,2013-02-18 12:06:00,
2013-02-18 04:11:00,46.4,23.9,-100.00,WSW,246,2.0,4.0,41,0.00,,,0.00,meteohub,2013-02-18 12:11:00,
2013-02-18 04:16:00,46.0,23.7,-100.00,WSW,246,0.0,4.0,41,0.00,,,0.00,meteohub,2013-02-18 12:16:00,
2013-02-18 04:21:00,46.0,23.7,-100.00,WSW,246,0.0,4.0,41,0.00,,,0.00,meteohub,2013-02-18 12:21:00,
2013-02-18 04:26:00,45.9,23.5,-100.00,WSW,245,0.0,3.0,41,0.00,,,0.00,meteohub,2013-02-18 12:26:00,
2013-02-18 04:31:00,45.5,23.7,-100.00,SSW,207,1.0,2.0,42,0.00,,,0.00,meteohub,2013-02-18 12:31:00,
2013-02-18 04:36:00,45.1,22.8,-100.00,SSW,207,2.0,3.0,41,0.00,,,0.00,meteohub,2013-02-18 12:36:00,
2013-02-18 04:41:00,45.1,23.4,-100.00,SSW,207,1.0,3.0,42,0.00,,,0.00,meteohub,2013-02-18 12:41:00,
2013-02-18 04:46:00,44.8,23.0,-100.00,SSW,207,5.0,5.0,42,0.00,,,0.00,meteohub,2013-02-18 12:46:00,
2013-02-18 04:51:00,44.8,23.0,-100.00,SSW,207,3.0,5.0,42,0.00,,,0.00,meteohub,2013-02-18 12:51:00,
2013-02-18 04:56:00,44.4,23.4,-100.00,SSW,207,1.0,5.0,43,0.00,,,0.00,meteohub,2013-02-18 12:56:00,
2013-02-18 05:01:00,44.4,23.4,-100.00,SSW,207,0.0,5.0,43,0.00,,,0.00,meteohub,2013-02-18 13:01:00,
2013-02-18 05:06:00,44.4,23.4,-100.00,SSW,207,0.0,4.0,43,0.00,,,0.00,meteohub,2013-02-18 13:06:00,
2013-02-18 05:11:00,44.2,23.2,-100.00,SSW,206,2.0,2.0,43,0.00,,,0.00,meteohub,2013-02-18 13:11:00,
2013-02-18 05:16:00,44.2,23.2,-100.00,SSW,206,0.0,2.0,43,0.00,,,0.00,meteohub,2013-02-18 13:16:00,
2013-02-18 05:21:00,44.1,23.5,-100.00,SSW,206,0.0,2.0,44,0.00,,,0.00,meteohub,2013-02-18 13:21:00,
2013-02-18 05:26:00,43.5,23.0,-100.00,SSW,206,0.0,2.0,44,0.00,,,0.00,meteohub,2013-02-18 13:26:00,
2013-02-18 05:31:00,43.2,23.2,-100.00,SSW,206,1.0,2.0,45,0.00,,,0.00,meteohub,2013-02-18 13:31:00,
2013-02-18 05:36:00,43.0,24.6,-100.00,SSW,206,2.0,3.0,48,0.00,,,0.00,meteohub,2013-02-18 13:36:00,
2013-02-18 05:41:00,42.8,23.4,-100.00,SSW,206,2.0,3.0,46,0.00,,,0.00,meteohub,2013-02-18 13:41:00,
2013-02-18 05:46:00,42.4,22.1,-100.00,SSW,206,0.0,3.0,44,0.00,,,0.00,meteohub,2013-02-18 13:46:00,
2013-02-18 05:51:00,41.9,21.6,-100.00,SSW,206,3.0,3.0,44,0.00,,,0.00,meteohub,2013-02-18 13:51:00,
2013-02-18 05:56:00,41.5,21.7,-100.00,SSW,205,3.0,4.0,45,0.00,,,0.00,meteohub,2013-02-18 13:56:00,
2013-02-18 06:01:00,41.4,22.6,-100.00,SSW,205,2.0,4.0,47,0.00,,,0.00,meteohub,2013-02-18 14:01:00,
2013-02-18 06:06:00,41.4,22.1,-100.00,SSW,205,1.0,4.0,46,0.00,,,0.00,meteohub,2013-02-18 14:06:00,
2013-02-18 06:11:00,41.2,21.9,-100.00,SSW,205,2.0,3.0,46,0.00,,,0.00,meteohub,2013-02-18 14:11:00,
2013-02-18 06:16:00,41.0,22.3,-100.00,SSW,205,0.0,3.0,47,0.00,,,0.00,meteohub,2013-02-18 14:16:00,
2013-02-18 06:22:00,40.8,22.1,-100.00,SSW,205,0.0,3.0,47,0.00,,,0.00,meteohub,2013-02-18 14:22:00,
2013-02-18 06:27:00,40.8,22.6,-100.00,SSW,205,0.0,3.0,48,0.00,,,0.00,meteohub,2013-02-18 14:27:00,
2013-02-18 06:32:00,40.6,22.5,-100.00,SSW,205,0.0,1.0,48,0.00,,,0.00,meteohub,2013-02-18 14:32:00,
2013-02-18 06:37:00,40.6,23.0,-100.00,SSW,205,0.0,1.0,49,0.00,,,0.00,meteohub,2013-02-18 14:37:00,
2013-02-18 06:42:00,40.5,22.8,-100.00,SSW,205,0.0,2.0,49,0.00,,,0.00,meteohub,2013-02-18 14:42:00,
2013-02-18 06:47:00,40.5,22.8,-100.00,SSW,205,4.0,4.0,49,0.00,,,0.00,meteohub,2013-02-18 14:47:00,
2013-02-18 06:52:00,40.3,22.6,-100.00,SSW,205,2.0,4.0,49,0.00,,,0.00,meteohub,2013-02-18 14:52:00,
2013-02-18 06:57:00,40.5,22.8,-100.00,SW,217,2.0,4.0,49,0.00,,,0.00,meteohub,2013-02-18 14:57:00,
2013-02-18 07:02:00,40.6,22.5,-100.00,SW,217,2.0,4.0,48,0.00,,,0.00,meteohub,2013-02-18 15:02:00,
2013-02-18 07:07:00,40.8,22.6,-100.00,SW,217,1.0,4.0,48,0.00,,,0.00,meteohub,2013-02-18 15:07:00,
2013-02-18 07:12:00,40.8,22.6,-100.00,SW,217,0.0,4.0,48,0.00,,,0.00,meteohub,2013-02-18 15:12:00,
2013-02-18 07:17:00,41.2,23.5,-100.00,SW,217,0.0,3.0,49,0.00,,,0.00,meteohub,2013-02-18 15:17:00,
2013-02-18 07:22:00,41.4,23.2,-100.00,SSE,150,2.0,3.0,48,0.00,,,0.00,meteohub,2013-02-18 15:22:00,
2013-02-18 07:27:00,41.4,23.2,-100.00,SSE,150,0.0,3.0,48,0.00,,,0.00,meteohub,2013-02-18 15:27:00,
2013-02-18 07:32:00,41.7,23.0,-100.00,SSE,150,0.0,3.0,47,0.00,,,0.00,meteohub,2013-02-18 15:32:00,
2013-02-18 07:37:00,42.3,23.5,-100.00,SSE,150,0.0,3.0,47,0.00,,,0.00,meteohub,2013-02-18 15:37:00,
2013-02-18 07:42:00,42.4,23.2,-100.00,SSE,150,0.0,2.0,46,0.00,,,0.00,meteohub,2013-02-18 15:42:00,
2013-02-18 07:47:00,42.6,22.8,-100.00,SSE,150,0.0,2.0,45,0.00,,,0.00,meteohub,2013-02-18 15:47:00,
2013-02-18 07:52:00,43.0,22.6,-100.00,SSE,150,1.0,2.0,44,0.00,,,0.00,meteohub,2013-02-18 15:52:00,
2013-02-18 07:57:00,43.3,22.8,-100.00,SSE,150,1.0,2.0,44,0.00,,,0.00,meteohub,2013-02-18 15:57:00,
2013-02-18 08:02:00,43.9,22.8,-100.00,SSE,150,0.0,3.0,43,0.00,,,0.00,meteohub,2013-02-18 16:02:00,
2013-02-18 08:07:00,44.8,23.0,-100.00,SSE,150,0.0,3.0,42,0.00,,,0.00,meteohub,2013-02-18 16:07:00,
2013-02-18 08:12:00,45.5,23.2,-100.00,SSE,150,0.0,2.0,41,0.00,,,0.00,meteohub,2013-02-18 16:12:00,
2013-02-18 08:17:00,46.0,23.0,-100.00,SSE,150,2.0,2.0,40,0.00,,,0.00,meteohub,2013-02-18 16:17:00,
2013-02-18 08:22:00,46.2,23.2,-100.00,SSE,148,2.0,2.0,40,0.00,,,0.00,meteohub,2013-02-18 16:22:00,
2013-02-18 08:27:00,46.8,23.2,-100.00,SSE,147,0.0,3.0,39,0.00,,,0.00,meteohub,2013-02-18 16:27:00,
2013-02-18 08:32:00,46.8,23.2,-100.00,SSE,147,0.0,3.0,39,0.00,,,0.00,meteohub,2013-02-18 16:32:00,
2013-02-18 08:37:00,46.9,22.6,-100.00,SSE,147,0.0,3.0,38,0.00,,,0.00,meteohub,2013-02-18 16:37:00,
2013-02-18 08:42:00,47.8,22.8,-100.00,SW,224,0.0,1.0,37,0.00,,,0.00,meteohub,2013-02-18 16:42:00,
2013-02-18 08:47:00,48.4,22.6,-100.00,WSW,254,2.0,4.0,36,0.00,,,0.00,meteohub,2013-02-18 16:47:00,
2013-02-18 08:52:00,48.9,23.2,-100.00,West,263,3.0,4.0,36,0.00,,,0.00,meteohub,2013-02-18 16:52:00,
2013-02-18 08:57:00,49.5,22.3,-100.00,West,265,1.0,4.0,34,0.00,,,0.00,meteohub,2013-02-18 16:57:00,
2013-02-18 09:02:00,49.6,22.5,-100.00,West,266,1.0,4.0,34,0.00,,,0.00,meteohub,2013-02-18 17:02:00,
2013-02-18 09:07:00,50.5,23.2,-100.00,West,266,1.0,4.0,34,0.00,,,0.00,meteohub,2013-02-18 17:07:00,
2013-02-18 09:12:00,51.1,23.0,-100.00,West,266,2.0,4.0,33,0.00,,,0.00,meteohub,2013-02-18 17:12:00,
2013-02-18 09:17:00,51.3,23.2,-100.00,West,266,0.0,3.0,33,0.00,,,0.00,meteohub,2013-02-18 17:17:00,
2013-02-18 09:22:00,51.4,23.4,-100.00,West,266,0.0,3.0,33,0.00,,,0.00,meteohub,2013-02-18 17:22:00,
2013-02-18 09:27:00,52.2,23.2,-100.00,West,266,1.0,3.0,32,0.00,,,0.00,meteohub,2013-02-18 17:27:00,
2013-02-18 09:32:00,52.2,23.2,-100.00,West,266,0.0,2.0,32,0.00,,,0.00,meteohub,2013-02-18 17:32:00,
2013-02-18 09:37:00,53.1,23.2,-100.00,West,266,0.0,2.0,31,0.00,,,0.00,meteohub,2013-02-18 17:37:00,
2013-02-18 09:42:00,53.1,23.2,-100.00,West,266,0.0,2.0,31,0.00,,,0.00,meteohub,2013-02-18 17:42:00,
2013-02-18 09:47:00,54.7,23.9,-100.00,West,266,1.0,1.0,30,0.00,,,0.00,meteohub,2013-02-18 17:47:00,
2013-02-18 09:52:00,55.6,23.0,-100.00,West,266,0.0,2.0,28,0.00,,,0.00,meteohub,2013-02-18 17:52:00,
2013-02-18 09:57:00,55.2,23.5,-100.00,West,266,2.0,2.0,29,0.00,,,0.00,meteohub,2013-02-18 17:57:00,
2013-02-18 10:02:00,56.3,23.5,-100.00,SSW,213,2.0,3.0,28,0.00,,,0.00,meteohub,2013-02-18 18:02:00,
2013-02-18 10:07:00,56.5,23.7,-100.00,SSW,207,0.0,3.0,28,0.00,,,0.00,meteohub,2013-02-18 18:07:00,
2013-02-18 10:12:00,56.8,24.1,-100.00,South,187,3.0,3.0,28,0.00,,,0.00,meteohub,2013-02-18 18:12:00,
2013-02-18 10:17:00,56.7,23.9,-100.00,SSE,167,3.0,4.0,28,0.00,,,0.00,meteohub,2013-02-18 18:17:00,
2013-02-18 10:22:00,56.5,23.7,-100.00,SSE,163,0.0,4.0,28,0.00,,,0.00,meteohub,2013-02-18 18:22:00,
2013-02-18 10:27:00,57.7,23.9,-100.00,ESE,111,3.0,4.0,27,0.00,,,0.00,meteohub,2013-02-18 18:27:00,
2013-02-18 10:32:00,58.1,23.4,-100.00,ESE,111,2.0,5.0,26,0.00,,,0.00,meteohub,2013-02-18 18:32:00,
2013-02-18 10:37:00,58.1,23.4,-100.00,ESE,109,2.0,5.0,26,0.00,,,0.00,meteohub,2013-02-18 18:37:00,
2013-02-18 10:42:00,57.7,23.9,-100.00,ESE,107,2.0,5.0,27,0.00,,,0.00,meteohub,2013-02-18 18:42:00,
2013-02-18 10:47:00,58.5,23.7,-100.00,ESE,103,4.0,4.0,26,0.00,,,0.00,meteohub,2013-02-18 18:47:00,
2013-02-18 10:52:00,59.2,23.4,-100.00,East,98,1.0,5.0,25,0.00,,,0.00,meteohub,2013-02-18 18:52:00,
2013-02-18 10:57:00,59.5,22.6,-100.00,East,97,1.0,5.0,24,0.00,,,0.00,meteohub,2013-02-18 18:57:00,
2013-02-18 11:02:00,59.4,22.6,-100.00,East,95,0.0,5.0,24,0.00,,,0.00,meteohub,2013-02-18 19:02:00,
2013-02-18 11:07:00,60.6,23.5,-100.00,ENE,71,3.0,5.0,24,0.00,,,0.00,meteohub,2013-02-18 19:07:00,
2013-02-18 11:12:00,59.7,22.8,-100.00,ENE,70,0.0,8.0,24,0.00,,,0.00,meteohub,2013-02-18 19:12:00,
2013-02-18 11:17:00,60.3,22.3,-100.00,ENE,69,1.0,8.0,23,0.00,,,0.00,meteohub,2013-02-18 19:17:00,
2013-02-18 11:22:00,61.3,22.1,-100.00,East,88,5.0,8.0,22,0.00,,,0.00,meteohub,2013-02-18 19:22:00,
2013-02-18 11:27:00,62.4,23.0,-100.00,ESE,107,4.0,7.0,22,0.00,,,0.00,meteohub,2013-02-18 19:27:00,
2013-02-18 11:32:00,62.8,22.3,-100.00,ESE,107,2.0,7.0,21,0.00,,,0.00,meteohub,2013-02-18 19:32:00,
2013-02-18 11:37:00,63.5,22.8,-100.00,ESE,115,2.0,7.0,21,0.00,,,0.00,meteohub,2013-02-18 19:37:00,
2013-02-18 11:42:00,63.3,22.6,-100.00,ESE,115,2.0,8.0,21,0.00,,,0.00,meteohub,2013-02-18 19:42:00,
2013-02-18 11:47:00,63.0,21.2,-100.00,East,80,7.0,8.0,20,0.00,,,0.00,meteohub,2013-02-18 19:47:00,
2013-02-18 11:52:00,62.8,21.0,-100.00,NE,53,4.0,8.0,20,0.00,,,0.00,meteohub,2013-02-18 19:52:00,
2013-02-18 11:57:00,62.4,20.8,-100.00,ENE,60,3.0,8.0,20,0.00,,,0.00,meteohub,2013-02-18 19:57:00,
2013-02-18 12:02:00,63.3,21.6,-100.00,ENE,58,7.0,8.0,20,0.00,,,0.00,meteohub,2013-02-18 20:02:00,
2013-02-18 12:07:00,63.7,21.9,-100.00,ESE,114,5.0,8.0,20,0.00,,,0.00,meteohub,2013-02-18 20:07:00,
2013-02-18 12:12:00,64.8,22.8,-100.00,South,174,8.0,8.0,20,0.00,,,0.00,meteohub,2013-02-18 20:12:00,
2013-02-18 12:17:00,65.8,22.5,-100.00,South,190,4.0,10.0,19,0.00,,,0.00,meteohub,2013-02-18 20:17:00,
2013-02-18 12:22:00,65.7,22.3,-100.00,SSW,195,1.0,10.0,19,0.00,,,0.00,meteohub,2013-02-18 20:22:00,
2013-02-18 12:27:00,63.9,23.2,-100.00,West,269,6.0,10.0,21,0.00,,,0.00,meteohub,2013-02-18 20:27:00,
2013-02-18 12:32:00,64.0,22.1,-100.00,WSW,251,0.0,7.0,20,0.00,,,0.00,meteohub,2013-02-18 20:32:00,
2013-02-18 12:37:00,63.5,21.7,-100.00,WSW,248,2.0,7.0,20,0.00,,,0.00,meteohub,2013-02-18 20:37:00,
2013-02-18 12:42:00,64.6,22.6,-100.00,SW,219,3.0,7.0,20,0.00,,,0.00,meteohub,2013-02-18 20:42:00,
2013-02-18 12:47:00,66.6,21.7,-100.00,South,188,4.0,5.0,18,0.00,,,0.00,meteohub,2013-02-18 20:47:00,
2013-02-18 12:52:00,66.6,21.7,-100.00,SE,145,7.0,7.0,18,0.00,,,0.00,meteohub,2013-02-18 20:52:00,
2013-02-18 12:57:00,66.0,21.2,-100.00,ESE,121,2.0,8.0,18,0.00,,,0.00,meteohub,2013-02-18 20:57:00,
2013-02-18 13:02:00,64.9,21.7,-100.00,ESE,117,2.0,8.0,19,0.00,,,0.00,meteohub,2013-02-18 21:02:00,
2013-02-18 13:07:00,63.9,20.8,-100.00,North,355,0.0,8.0,19,0.00,,,0.00,meteohub,2013-02-18 21:07:00,
2013-02-18 13:12:00,64.9,21.7,-100.00,East,87,9.0,9.0,19,0.00,,,0.00,meteohub,2013-02-18 21:12:00,
2013-02-18 13:17:00,65.7,23.5,-100.00,SSE,155,1.0,10.0,20,0.00,,,0.00,meteohub,2013-02-18 21:17:00,
2013-02-18 13:22:00,66.4,21.6,-100.00,SSE,165,1.0,10.0,18,0.00,,,0.00,meteohub,2013-02-18 21:22:00,
2013-02-18 13:28:00,65.8,21.2,-100.00,SE,135,2.0,10.0,18,0.00,,,0.00,meteohub,2013-02-18 21:28:00,
2013-02-18 13:33:00,65.8,21.2,-100.00,SE,145,3.0,6.0,18,0.00,,,0.00,meteohub,2013-02-18 21:33:00,
2013-02-18 13:38:00,66.4,20.3,-100.00,SE,129,2.0,5.0,17,0.00,,,0.00,meteohub,2013-02-18 21:38:00,
2013-02-18 13:43:00,66.9,20.7,-100.00,East,98,7.0,8.0,17,0.00,,,0.00,meteohub,2013-02-18 21:43:00,
2013-02-18 13:48:00,66.6,20.3,-100.00,SSE,148,4.0,8.0,17,0.00,,,0.00,meteohub,2013-02-18 21:48:00,
2013-02-18 13:53:00,67.5,21.2,-100.00,SE,134,1.0,11.0,17,0.00,,,0.00,meteohub,2013-02-18 21:53:00,
2013-02-18 13:58:00,68.2,20.3,-100.00,South,186,6.0,11.0,16,0.00,,,0.00,meteohub,2013-02-18 21:58:00,
2013-02-18 14:03:00,68.2,20.3,-100.00,South,180,8.0,19.0,16,0.00,,,0.00,meteohub,2013-02-18 22:03:00,
2013-02-18 14:08:00,68.5,20.5,-100.00,SSW,196,8.0,19.0,16,0.00,,,0.00,meteohub,2013-02-18 22:08:00,
2013-02-18 14:13:00,68.7,20.7,-100.00,SSE,162,13.0,19.0,16,0.00,,,0.00,meteohub,2013-02-18 22:13:00,
2013-02-18 14:18:00,68.9,20.8,-100.00,SSW,202,7.0,17.0,16,0.00,,,0.00,meteohub,2013-02-18 22:18:00,
2013-02-18 14:23:00,68.4,21.9,-100.00,South,186,9.0,19.0,17,0.00,,,0.00,meteohub,2013-02-18 22:23:00,
2013-02-18 14:28:00,68.2,21.7,-100.00,SSW,209,13.0,19.0,17,0.00,,,0.00,meteohub,2013-02-18 22:28:00,
2013-02-18 14:33:00,68.2,21.7,-100.00,SSW,210,4.0,18.0,17,0.00,,,0.00,meteohub,2013-02-18 22:33:00,
2013-02-18 14:38:00,68.4,21.9,-100.00,South,170,10.0,18.0,17,0.00,,,0.00,meteohub,2013-02-18 22:38:00,
2013-02-18 14:43:00,68.5,21.9,-100.00,SSW,196,12.0,18.0,17,0.00,,,0.00,meteohub,2013-02-18 22:43:00,
2013-02-18 14:48:00,68.2,21.7,-100.00,SSW,200,10.0,20.0,17,0.00,,,0.00,meteohub,2013-02-18 22:48:00,
2013-02-18 14:53:00,67.6,21.2,-100.00,SSW,207,16.0,20.0,17,0.00,,,0.00,meteohub,2013-02-18 22:53:00,
2013-02-18 14:58:00,68.2,21.7,-100.00,SSW,212,5.0,19.0,17,0.00,,,0.00,meteohub,2013-02-18 22:58:00,
2013-02-18 15:03:00,68.4,21.9,-100.00,SW,223,12.0,19.0,17,0.00,,,0.00,meteohub,2013-02-18 23:03:00,
2013-02-18 15:08:00,68.4,20.5,-100.00,SW,225,12.0,19.0,16,0.00,,,0.00,meteohub,2013-02-18 23:08:00,
2013-02-18 15:13:00,68.4,20.5,-100.00,SW,214,14.0,17.0,16,0.00,,,0.00,meteohub,2013-02-18 23:13:00,
2013-02-18 15:18:00,68.2,21.7,-100.00,SW,215,6.0,19.0,17,0.00,,,0.00,meteohub,2013-02-18 23:18:00,
2013-02-18 15:23:00,67.8,21.4,-100.00,SSW,205,12.0,19.0,17,0.00,,,0.00,meteohub,2013-02-18 23:23:00,
2013-02-18 15:28:00,67.6,19.8,-100.00,SSW,205,6.0,20.0,16,0.00,,,0.00,meteohub,2013-02-18 23:28:00,
2013-02-18 15:33:00,68.0,21.6,-100.00,SW,217,15.0,23.0,17,0.00,,,0.00,meteohub,2013-02-18 23:33:00,
2013-02-18 15:38:00,67.6,19.8,-100.00,SSW,199,14.0,23.0,16,0.00,,,0.00,meteohub,2013-02-18 23:38:00,
2013-02-18 15:43:00,67.6,21.2,-100.00,SW,219,10.0,20.0,17,0.00,,,0.00,meteohub,2013-02-18 23:43:00,
2013-02-18 15:48:00,67.8,21.4,-100.00,SSW,209,12.0,20.0,17,0.00,,,0.00,meteohub,2013-02-18 23:48:00,
2013-02-18 15:53:00,67.8,21.4,-100.00,SSW,198,17.0,22.0,17,0.00,,,0.00,meteohub,2013-02-18 23:53:00,
2013-02-18 15:58:00,67.5,22.5,-100.00,WSW,248,16.0,22.0,18,0.00,,,0.00,meteohub,2013-02-18 23:58:00,
2013-02-18 16:03:00,67.3,22.3,-100.00,SSW,205,9.0,24.0,18,0.00,,,0.00,meteohub,2013-02-19 00:03:00,
2013-02-18 16:08:00,67.3,22.3,-100.00,SW,225,11.0,24.0,18,0.00,,,0.00,meteohub,2013-02-19 00:08:00,
2013-02-18 16:13:00,67.5,22.5,-100.00,South,186,10.0,24.0,18,0.00,,,0.00,meteohub,2013-02-19 00:13:00,
2013-02-18 16:18:00,67.3,22.3,-100.00,SSW,196,16.0,23.0,18,0.00,,,0.00,meteohub,2013-02-19 00:18:00,
2013-02-18 16:23:00,66.9,22.1,-100.00,SW,217,14.0,23.0,18,0.00,,,0.00,meteohub,2013-02-19 00:23:00,
2013-02-18 16:29:00,66.9,20.7,-100.00,South,186,17.0,27.0,17,0.00,,,0.00,meteohub,2013-02-19 00:29:00,
2013-02-18 16:34:00,66.9,20.7,-100.00,South,178,19.0,27.0,17,0.00,,,0.00,meteohub,2013-02-19 00:34:00,
2013-02-18 16:39:00,66.7,17.6,-100.00,SW,222,22.0,23.0,15,0.00,,,0.00,meteohub,2013-02-19 00:39:00,
2013-02-18 16:44:00,66.7,17.6,-100.00,SW,217,12.0,23.0,15,0.00,,,0.00,meteohub,2013-02-19 00:44:00,
2013-02-18 16:49:00,66.6,20.3,-100.00,SW,215,18.0,23.0,17,0.00,,,0.00,meteohub,2013-02-19 00:49:00,
2013-02-18 16:54:00,66.6,21.7,-100.00,SW,215,22.0,26.0,18,0.00,,,0.00,meteohub,2013-02-19 00:54:00,
2013-02-18 16:59:00,66.4,21.6,-100.00,SSW,205,17.0,26.0,18,0.00,,,0.00,meteohub,2013-02-19 00:59:00,
2013-02-18 17:04:00,66.0,22.6,-100.00,SSW,212,8.0,26.0,19,0.00,,,0.00,meteohub,2013-02-19 01:04:00,
2013-02-18 17:09:00,65.7,22.3,-100.00,SSW,201,12.0,24.0,19,0.00,,,0.00,meteohub,2013-02-19 01:09:00,
2013-02-18 17:14:00,65.1,20.5,-100.00,SW,227,8.0,24.0,18,0.00,,,0.00,meteohub,2013-02-19 01:14:00,
2013-02-18 17:19:00,64.9,20.5,-100.00,SSW,205,7.0,26.0,18,0.00,,,0.00,meteohub,2013-02-19 01:19:00,
2013-02-18 17:24:00,64.6,21.4,-100.00,SSW,192,13.0,26.0,19,0.00,,,0.00,meteohub,2013-02-19 01:24:00,
2013-02-18 17:29:00,64.2,21.0,-100.00,SSW,210,17.0,26.0,19,0.00,,,0.00,meteohub,2013-02-19 01:29:00,
2013-02-18 17:34:00,63.9,20.8,-100.00,SSW,210,13.0,27.0,19,0.00,,,0.00,meteohub,2013-02-19 01:34:00,
2013-02-18 17:39:00,63.7,20.7,-100.00,SSW,205,7.0,29.0,19,0.00,,,0.00,meteohub,2013-02-19 01:39:00,
2013-02-18 17:45:00,63.3,20.3,-100.00,SSW,203,10.0,29.0,19,0.00,,,0.00,meteohub,2013-02-19 01:45:00,
2013-02-18 17:50:00,63.1,20.1,-100.00,SSW,213,12.0,29.0,19,0.00,,,0.00,meteohub,2013-02-19 01:50:00,
2013-02-18 17:55:00,63.0,21.2,-100.00,South,188,24.0,26.0,20,0.00,,,0.00,meteohub,2013-02-19 01:55:00,
2013-02-18 18:00:00,62.6,21.0,-100.00,SSW,205,17.0,26.0,20,0.00,,,0.00,meteohub,2013-02-19 02:00:00,
2013-02-18 18:05:00,62.4,19.6,-100.00,SSW,213,10.0,28.0,19,0.00,,,0.00,meteohub,2013-02-19 02:05:00,
2013-02-18 18:10:00,62.2,18.1,-100.00,South,178,16.0,28.0,18,0.00,,,0.00,meteohub,2013-02-19 02:10:00,
2013-02-18 18:15:00,62.2,16.9,-100.00,SW,227,19.0,28.0,17,0.00,,,0.00,meteohub,2013-02-19 02:15:00,
2013-02-18 18:20:00,62.1,15.3,-100.00,SW,225,22.0,28.0,16,0.00,,,0.00,meteohub,2013-02-19 02:20:00,
2013-02-18 18:25:00,61.9,15.3,-100.00,SSW,200,20.0,32.0,16,0.00,,,0.00,meteohub,2013-02-19 02:25:00,
2013-02-18 18:30:00,61.5,16.3,-100.00,SW,218,14.0,32.0,17,0.00,,,0.00,meteohub,2013-02-19 02:30:00,
2013-02-18 18:35:00,61.2,17.2,-100.00,SW,219,9.0,29.0,18,0.00,,,0.00,meteohub,2013-02-19 02:35:00,
2013-02-18 18:40:00,61.2,16.0,-100.00,SSW,196,20.0,29.0,17,0.00,,,0.00,meteohub,2013-02-19 02:40:00,
2013-02-18 18:45:00,61.2,16.0,-100.00,SW,223,22.0,31.0,17,0.00,,,0.00,meteohub,2013-02-19 02:45:00,
2013-02-18 18:50:00,60.8,17.1,-100.00,SSW,213,13.0,31.0,18,0.00,,,0.00,meteohub,2013-02-19 02:50:00,
2013-02-18 18:55:00,60.4,18.0,-100.00,SW,214,18.0,29.0,19,0.00,,,0.00,meteohub,2013-02-19 02:55:00,
2013-02-18 19:01:00,60.1,17.6,-100.00,SW,223,11.0,28.0,19,0.00,,,0.00,meteohub,2013-02-19 03:01:00,
2013-02-18 19:06:00,59.9,18.7,-100.00,SW,223,9.0,28.0,20,0.00,,,0.00,meteohub,2013-02-19 03:06:00,
2013-02-18 19:11:00,59.7,18.5,-100.00,SW,219,23.0,28.0,20,0.00,,,0.00,meteohub,2013-02-19 03:11:00,
2013-02-18 19:16:00,59.5,18.5,-100.00,SSW,211,12.0,25.0,20,0.00,,,0.00,meteohub,2013-02-19 03:16:00,
2013-02-18 19:21:00,59.4,19.4,-100.00,SW,230,17.0,23.0,21,0.00,,,0.00,meteohub,2013-02-19 03:21:00,
2013-02-18 19:26:00,58.8,19.0,-100.00,SW,232,8.0,23.0,21,0.00,,,0.00,meteohub,2013-02-19 03:26:00,
2013-02-18 19:31:00,58.5,19.8,-100.00,SW,235,9.0,23.0,22,0.00,,,0.00,meteohub,2013-02-19 03:31:00,
2013-02-18 19:36:00,58.3,19.6,-100.00,South,191,7.0,24.0,22,0.00,,,0.00,meteohub,2013-02-19 03:36:00,
2013-02-18 19:41:00,57.9,20.3,-100.00,WSW,251,25.0,25.0,23,0.00,,,0.00,meteohub,2013-02-19 03:41:00,
2013-02-18 19:46:00,57.7,19.2,-100.00,WSW,242,8.0,29.0,22,0.00,,,0.00,meteohub,2013-02-19 03:46:00,
2013-02-18 19:51:00,57.6,19.9,-100.00,SW,216,12.0,29.0,23,0.00,,,0.00,meteohub,2013-02-19 03:51:00,
2013-02-18 19:56:00,57.6,19.0,-100.00,SSW,209,8.0,29.0,22,0.00,,,0.00,meteohub,2013-02-19 03:56:00,
2013-02-18 20:01:00,57.4,19.9,-100.00,SW,229,22.0,26.0,23,0.00,,,0.00,meteohub,2013-02-19 04:01:00,
2013-02-18 20:06:00,57.2,19.8,-100.00,SW,220,12.0,27.0,23,0.00,,,0.00,meteohub,2013-02-19 04:06:00,
2013-02-18 20:11:00,56.8,19.4,-100.00,SW,225,12.0,29.0,23,0.00,,,0.00,meteohub,2013-02-19 04:11:00,
2013-02-18 20:16:00,56.7,20.3,-100.00,WSW,240,19.0,29.0,24,0.00,,,0.00,meteohub,2013-02-19 04:16:00,
2013-02-18 20:21:00,56.5,21.0,-100.00,SW,219,18.0,29.0,25,0.00,,,0.00,meteohub,2013-02-19 04:21:00,
2013-02-18 20:26:00,56.5,21.9,-100.00,SW,231,11.0,24.0,26,0.00,,,0.00,meteohub,2013-02-19 04:26:00,
2013-02-18 20:31:00,56.3,20.8,-100.00,SW,222,10.0,24.0,25,0.00,,,0.00,meteohub,2013-02-19 04:31:00,
2013-02-18 20:36:00,56.1,21.7,-100.00,SW,221,6.0,22.0,26,0.00,,,0.00,meteohub,2013-02-19 04:36:00,
2013-02-18 20:41:00,55.9,21.6,-100.00,SW,215,14.0,23.0,26,0.00,,,0.00,meteohub,2013-02-19 04:41:00,
2013-02-18 20:46:00,55.8,21.4,-100.00,SW,217,17.0,23.0,26,0.00,,,0.00,meteohub,2013-02-19 04:46:00,
2013-02-18 20:51:00,55.8,22.3,-100.00,SW,221,13.0,30.0,27,0.00,,,0.00,meteohub,2013-02-19 04:51:00,
2013-02-18 20:56:00,55.9,23.4,-100.00,SW,214,22.0,30.0,28,0.00,,,0.00,meteohub,2013-02-19 04:56:00,
2013-02-18 21:00:00,56.1,22.6,-100.00,SW,230,19.0,30.0,27,0.00,,,0.00,meteohub,2013-02-19 05:00:00,
2013-02-18 21:02:00,56.1,22.6,-100.00,SW,233,13.0,30.0,27,0.00,,,0.00,meteohub,2013-02-19 05:02:00,
2013-02-18 21:07:00,55.9,22.5,-100.00,SW,234,11.0,22.0,27,0.00,,,0.00,meteohub,2013-02-19 05:07:00,
2013-02-18 21:12:00,55.8,23.2,-100.00,SW,223,12.0,22.0,28,0.00,,,0.00,meteohub,2013-02-19 05:12:00,
2013-02-18 21:17:00,55.6,24.6,-100.00,SW,228,12.0,22.0,30,0.00,,,0.00,meteohub,2013-02-19 05:17:00,
2013-02-18 21:22:00,55.4,26.1,-100.00,SW,225,14.0,22.0,32,0.00,,,0.00,meteohub,2013-02-19 05:22:00,
2013-02-18 21:27:00,55.4,26.1,-100.00,WSW,246,14.0,22.0,32,0.00,,,0.00,meteohub,2013-02-19 05:27:00,
2013-02-18 21:32:00,55.2,25.9,-100.00,SW,233,17.0,22.0,32,0.00,,,0.00,meteohub,2013-02-19 05:32:00,
2013-02-18 21:37:00,55.2,25.9,-100.00,SSW,213,14.0,25.0,32,0.00,,,0.00,meteohub,2013-02-19 05:37:00,
2013-02-18 21:42:00,55.2,26.6,-100.00,SW,223,8.0,26.0,33,0.00,,,0.00,meteohub,2013-02-19 05:42:00,
2013-02-18 21:47:00,55.0,25.7,-100.00,WSW,258,11.0,26.0,32,0.00,,,0.00,meteohub,2013-02-19 05:47:00,
2013-02-18 21:52:00,55.0,26.4,-100.00,SW,234,8.0,26.0,33,0.00,,,0.00,meteohub,2013-02-19 05:52:00,
2013-02-18 21:57:00,55.0,26.4,-100.00,SW,227,11.0,22.0,33,0.00,,,0.00,meteohub,2013-02-19 05:57:00,
2013-02-18 22:02:00,54.9,25.5,-100.00,SW,220,6.0,21.0,32,0.00,,,0.00,meteohub,2013-02-19 06:02:00,
2013-02-18 22:07:00,54.9,25.5,-100.00,SSW,211,6.0,21.0,32,0.00,,,0.00,meteohub,2013-02-19 06:07:00,
2013-02-18 22:12:00,54.7,25.3,-100.00,SSW,207,4.0,18.0,32,0.00,,,0.00,meteohub,2013-02-19 06:12:00,
2013-02-18 22:17:00,54.7,25.3,-100.00,SW,228,2.0,12.0,32,0.00,,,0.00,meteohub,2013-02-19 06:17:00,
2013-02-18 22:22:00,54.9,26.2,-100.00,South,169,2.0,12.0,33,0.00,,,0.00,meteohub,2013-02-19 06:22:00,
2013-02-18 22:27:00,54.9,26.2,-100.00,SSW,207,4.0,9.0,33,0.00,,,0.00,meteohub,2013-02-19 06:27:00,
2013-02-18 22:32:00,54.9,26.2,-100.00,South,191,11.0,11.0,33,0.00,,,0.00,meteohub,2013-02-19 06:32:00,
2013-02-18 22:37:00,54.7,26.1,-100.00,SSW,200,8.0,12.0,33,0.00,,,0.00,meteohub,2013-02-19 06:37:00,
2013-02-18 22:42:00,54.7,25.3,-100.00,SW,228,3.0,13.0,32,0.00,,,0.00,meteohub,2013-02-19 06:42:00,
2013-02-18 22:47:00,54.7,26.8,-100.00,WSW,246,6.0,13.0,34,0.00,,,0.00,meteohub,2013-02-19 06:47:00,
2013-02-18 22:52:00,54.7,27.5,-100.00,SW,214,7.0,13.0,35,0.00,,,0.00,meteohub,2013-02-19 06:52:00,
2013-02-18 22:57:00,54.7,26.8,-100.00,SW,217,5.0,13.0,34,0.00,,,0.00,meteohub,2013-02-19 06:57:00,
2013-02-18 23:02:00,54.9,26.2,-100.00,SSW,211,10.0,15.0,33,0.00,,,0.00,meteohub,2013-02-19 07:02:00,
2013-02-18 23:07:00,54.9,26.2,-100.00,SSW,204,9.0,15.0,33,0.00,,,0.00,meteohub,2013-02-19 07:07:00,
2013-02-18 23:12:00,55.0,27.9,-100.00,SW,214,8.0,15.0,35,0.00,,,0.00,meteohub,2013-02-19 07:12:00,
2013-02-18 23:17:00,55.0,27.1,-100.00,SSW,194,10.0,15.0,34,0.00,,,0.00,meteohub,2013-02-19 07:17:00,
2013-02-18 23:22:00,55.0,26.4,-100.00,SSW,207,10.0,15.0,33,0.00,,,0.00,meteohub,2013-02-19 07:22:00,
2013-02-18 23:27:00,55.0,26.4,-100.00,SSW,202,9.0,14.0,33,0.00,,,0.00,meteohub,2013-02-19 07:27:00,
2013-02-18 23:32:00,54.7,26.1,-100.00,South,187,11.0,14.0,33,0.00,,,0.00,meteohub,2013-02-19 07:32:00,
2013-02-18 23:37:00,54.3,27.3,-100.00,South,184,11.0,14.0,35,0.00,,,0.00,meteohub,2013-02-19 07:37:00,
2013-02-18 23:42:00,54.3,27.9,-100.00,South,190,6.0,15.0,36,0.00,,,0.00,meteohub,2013-02-19 07:42:00,
2013-02-18 23:47:00,54.3,27.3,-100.00,South,183,7.0,16.0,35,0.00,,,0.00,meteohub,2013-02-19 07:47:00,
2013-02-18 23:52:00,54.3,27.9,-100.00,South,186,12.0,16.0,36,0.00,,,0.00,meteohub,2013-02-19 07:52:00,
2013-02-18 23:57:00,54.3,27.9,-100.00,South,169,16.0,16.0,36,0.00,,,0.00,meteohub,2013-02-19 07:57:00,